Content
SEND FEEDBACK

Daily
Averages
Monthly
Summary
United States of America

TUCSON, ARIZONA


Home > North America > United States > Arizona
Elevation: 2584 feet     Latitude: 32 08N     Longitude: 110 56W

WEATHER
 
SELECT A DAY
Number of Records: 108,982;   Date Range: 1/1/02 - 9/30/14
 
SHARE

PRINT THIS DATA

[ ← Previous Day ]
WEATHER ALMANAC - MARCH 15, 2013
[ Next Day → ]
[ °C ]   °F
Weather ElementAverageHighLow
Temperature75.1 °F93.9 °F (1:53 pm)55 °F (5:53 am)
Dewpoint19.3 °F28 °F (8:53 pm)1.9 °F (2:53 pm)
Humidity15.6 %31 % (5:53 am)4 % (12:53 pm)
Barometer29.92 in30.09 in (1:53 am)29.83 in (4:53 pm)
Wind Speed8.2 mph15 mph (2:53 pm)
Wind Gust25.3 mph (3:53 pm)
Weather ElementAverage
Visibility10 mi
Wind DirectionSSW (192.1 °)

Weather ElementTotal
Precipitation---
Cooling Degree Days9.5 (Base 65)
Growing Degree Days24.5 (Base 50)
Averaged from 24 records on March 15, 2013
WEATHER CONDITIONS BREAKOUT
WIND DIRECTION BREAKOUT
WEATHER BY HOUR - MARCH 15, 2013
[ °C ]   °F
Local TimeTemperatureDewpointHumidityBarometerVisibilityWind DirectionWind SpeedGust SpeedPrecipitationEventsConditions
1:53 AM59.0 °F26.6 °F29 %30.09 in10.0 miSE (140°)9.2 mphClear
2:53 AM59.0 °F27.0 °F29 %29.97 in10.0 miSE (130°)8.1 mphClear
3:53 AM57.9 °F24.1 °F27 %29.97 in10.0 miSSE (160°)8.1 mphClear
4:53 AM57.0 °F24.1 °F28 %29.96 in10.0 miSE (140°)11.5 mphClear
5:53 AM55.0 °F25.0 °F31 %29.97 in10.0 miSSE (150°)8.1 mphClear
6:53 AM55.0 °F23.0 °F29 %29.99 in10.0 miSE (140°)9.2 mphClear
7:53 AM62.1 °F24.1 °F23 %29.99 in10.0 miSSE (150°)11.5 mphClear
8:53 AM68.0 °F23.0 °F18 %29.99 in10.0 miSSE (160°)9.2 mphClear
9:53 AM75.9 °F23.0 °F14 %29.98 in10.0 miSE (130°)4.6 mphClear
10:53 AM82.9 °F19.9 °F10 %29.95 in10.0 miSSE (150°)5.8 mphClear
11:53 AM88.0 °F12.9 °F6 %29.93 in10.0 miCalmClear
12:53 PM91.9 °F7.0 °F4 %29.90 in10.0 miCalmClear
1:53 PM93.9 °F9.0 °F4 %29.86 in10.0 miWest (260°)10.4 mphClear
2:53 PM93.0 °F1.9 °F4 %29.85 in10.0 miWest (270°)15.0 mph24.2 mphClear
3:53 PM91.9 °F23.0 °F8 %29.84 in10.0 miNW (320°)13.8 mph25.3 mphClear
4:36 PM91.4 °F6.8 °F4 %29.95 in10.0 miWNW (300°)15.0 mph23.0 mphClear
4:53 PM90.0 °F9.0 °F5 %29.83 in10.0 miWest (280°)13.8 mph19.6 mphClear
5:53 PM87.1 °F10.0 °F6 %29.84 in10.0 miWNW (290°)10.4 mph18.4 mphClear
6:53 PM84.0 °F23.0 °F11 %29.85 in10.0 miNW (320°)6.9 mphClear
7:53 PM78.1 °F21.9 °F12 %29.86 in10.0 miWest (260°)4.6 mphClear
8:53 PM73.9 °F28.0 °F18 %29.87 in10.0 miWest (280°)4.6 mphClear
9:53 PM72.0 °F28.0 °F20 %29.87 in10.0 miSSW (210°)4.6 mphClear
10:53 PM70.0 °F21.9 °F16 %29.87 in10.0 miSW (220°)5.8 mphClear
11:53 PM66.0 °F21.0 °F18 %29.86 in10.0 miSSE (150°)5.8 mphClear
Hourly data recorded from KTUS, located miles away from Tucson, Arizona







STORIES FROM OUR PARTNERS